• In Latvia
  • List of Countries
  • For 7 days
  • Water Temperature
  • Satellite Maps
  • Weather Map
  • Weather Widgets
  • user-avatar
    Login

    Hourly Weather Innsbruck

    Today, 25 September, Monday

    Time Temperature Precipitation Wind Pressure Humidity
    00:00 +1°C° 0 mm 1 mps 596 mmHg 92%
    01:00 0°C° 0 mm 1 mps 596 mmHg 92%
    02:00 0°C° 0 mm 1 mps 596 mmHg 90%
    03:00 0°C° 0 mm 1 mps 596 mmHg 89%
    04:00 0°C° 0 mm 1 mps 596 mmHg 88%
    05:00 0°C° 0 mm 1 mps 596 mmHg 86%
    06:00 0°C° 0 mm 1 mps 596 mmHg 83%
    07:00 +1°C° 0 mm 1 mps 596 mmHg 81%
    08:00 +3°C° 0 mm 1 mps 597 mmHg 73%
    09:00 +6°C° 0 mm 1 mps 598 mmHg 64%
    10:00 +7°C° 0 mm 0 mps 599 mmHg 56%
    11:00 +8°C° 0 mm 0 mps 599 mmHg 54%
    12:00 +10°C° 0 mm 1 mps 599 mmHg 52%
    13:00 +10°C° 0 mm 1 mps 599 mmHg 49%
    14:00 +10°C° 0 mm 1 mps 599 mmHg 52%
    15:00 +9°C° 0 mm 1 mps 599 mmHg 55%
    16:00 +9°C° 0 mm 1 mps 598 mmHg 57%
    17:00 +7°C° 0 mm 1 mps 598 mmHg 67%
    18:00 +4°C° 0 mm 1 mps 597 mmHg 76%
    19:00 +1°C° 0 mm 0 mps 596 mmHg 85%
    20:00 +2°C° 0 mm 1 mps 596 mmHg 86%
    21:00 +1°C° 0 mm 1 mps 596 mmHg 86%
    22:00 +1°C° 0 mm 1 mps 596 mmHg 86%
    23:00 +1°C° 0 mm 1 mps 596 mmHg 86%

    Tomorrow, 26 September, Tuesday

    Time Temperature Precipitation Wind Pressure Humidity
    00:00 +1°C° 0 mm 1 mps 596 mmHg 86%
    01:00 +1°C° 0 mm 1 mps 596 mmHg 85%
    02:00 +1°C° 0 mm 1 mps 596 mmHg 86%
    03:00 0°C° 0 mm 1 mps 596 mmHg 86%
    04:00 0°C° 0 mm 1 mps 596 mmHg 86%
    05:00 +1°C° 0 mm 1 mps 596 mmHg 85%
    06:00 +1°C° 0 mm 1 mps 597 mmHg 85%
    07:00 +1°C° 0 mm 1 mps 597 mmHg 84%
    08:00 +4°C° 0 mm 1 mps 598 mmHg 75%
    09:00 +6°C° 0 mm 1 mps 599 mmHg 67%
    10:00 +9°C° 0 mm 1 mps 600 mmHg 59%
    11:00 +10°C° 0 mm 1 mps 600 mmHg 57%
    12:00 +10°C° 0 mm 1 mps 600 mmHg 55%
    13:00 +11°C° 0 mm 1 mps 601 mmHg 54%
    14:00 +10°C° 0.1 mm 1 mps 600 mmHg 57%
    15:00 +10°C° 0.1 mm 1 mps 600 mmHg 60%
    16:00 +9°C° 0.1 mm 1 mps 600 mmHg 64%
    17:00 +7°C° 0 mm 1 mps 599 mmHg 72%
    18:00 +5°C° 0 mm 1 mps 598 mmHg 80%
    19:00 +2°C° 0 mm 0 mps 598 mmHg 89%
    20:00 +2°C° 0 mm 1 mps 598 mmHg 89%
    21:00 +2°C° 0 mm 1 mps 598 mmHg 89%
    22:00 +2°C° 0 mm 1 mps 598 mmHg 89%
    23:00 +2°C° 0 mm 1 mps 598 mmHg 88%

    Day after tomorrow, 27 September, Wednesday

    Time Temperature Precipitation Wind Pressure Humidity
    00:00 +2°C° 0 mm 1 mps 598 mmHg 87%
    01:00 +2°C° 0 mm 1 mps 598 mmHg 86%
    02:00 +2°C° 0 mm 1 mps 598 mmHg 86%
    03:00 +2°C° 0 mm 1 mps 598 mmHg 86%
    04:00 +2°C° 0 mm 1 mps 598 mmHg 86%
    05:00 +2°C° 0 mm 1 mps 598 mmHg 85%
    06:00 +3°C° 0 mm 1 mps 599 mmHg 85%
    07:00 +3°C° 0 mm 1 mps 599 mmHg 84%
    08:00 +5°C° 0 mm 1 mps 600 mmHg 76%
    09:00 +8°C° 0 mm 1 mps 601 mmHg 69%
    10:00 +10°C° 0 mm 1 mps 602 mmHg 61%
    11:00 +10°C° 0 mm 1 mps 602 mmHg 59%
    12:00 +11°C° 0 mm 1 mps 602 mmHg 57%
    13:00 +12°C° 0 mm 1 mps 602 mmHg 55%
    14:00 +11°C° 0.1 mm 1 mps 602 mmHg 58%
    15:00 +11°C° 0.1 mm 1 mps 602 mmHg 62%
    16:00 +10°C° 0.1 mm 1 mps 601 mmHg 65%
    17:00 +8°C° 0 mm 1 mps 601 mmHg 73%
    18:00 +6°C° 0 mm 1 mps 600 mmHg 81%
    19:00 +4°C° 0 mm 1 mps 599 mmHg 88%
    20:00 +4°C° 0 mm 1 mps 599 mmHg 88%
    21:00 +3°C° 0 mm 1 mps 599 mmHg 88%
    22:00 +3°C° 0 mm 1 mps 599 mmHg 88%
    23:00 +3°C° 0 mm 1 mps 599 mmHg 88%

    28 September, Thursday

    Time Temperature Precipitation Wind Pressure Humidity
    00:00 +3°C° 0 mm 1 mps 599 mmHg 88%
    01:00 +2°C° 0 mm 1 mps 599 mmHg 87%
    02:00 +2°C° 0 mm 1 mps 599 mmHg 87%
    03:00 +2°C° 0 mm 1 mps 599 mmHg 87%
    04:00 +2°C° 0 mm 1 mps 599 mmHg 87%
    05:00 +2°C° 0 mm 1 mps 599 mmHg 86%
    06:00 +3°C° 0 mm 1 mps 599 mmHg 85%
    07:00 +3°C° 0 mm 1 mps 599 mmHg 84%
    08:00 +6°C° 0 mm 1 mps 601 mmHg 75%
    09:00 +8°C° 0 mm 1 mps 602 mmHg 67%
    10:00 +11°C° 0 mm 1 mps 603 mmHg 58%
    11:00 +12°C° 0 mm 1 mps 603 mmHg 56%
    12:00 +12°C° 0 mm 1 mps 603 mmHg 55%
    13:00 +13°C° 0 mm 2 mps 603 mmHg 54%
    14:00 +12°C° 0.3 mm 2 mps 603 mmHg 60%
    15:00 +10°C° 0.3 mm 2 mps 602 mmHg 66%
    16:00 +9°C° 0.3 mm 2 mps 602 mmHg 72%
    17:00 +8°C° 0.4 mm 2 mps 601 mmHg 79%
    18:00 +7°C° 0.4 mm 1 mps 601 mmHg 86%
    19:00 +6°C° 0.4 mm 1 mps 601 mmHg 92%
    20:00 +5°C° 0.2 mm 1 mps 601 mmHg 93%
    21:00 +5°C° 0.2 mm 1 mps 600 mmHg 94%
    22:00 +5°C° 0.2 mm 1 mps 600 mmHg 94%
    23:00 +4°C° 0.1 mm 1 mps 600 mmHg 93%

    29 September, Friday

    Time Temperature Precipitation Wind Pressure Humidity
    00:00 +4°C° 0.1 mm 1 mps 600 mmHg 92%
    01:00 +4°C° 0.1 mm 1 mps 600 mmHg 90%
    02:00 +4°C° 0 mm 1 mps 600 mmHg 89%
    03:00 +4°C° 0 mm 1 mps 599 mmHg 87%
    04:00 +4°C° 0 mm 1 mps 599 mmHg 85%
    05:00 +4°C° 0 mm 1 mps 599 mmHg 84%
    06:00 +4°C° 0 mm 1 mps 599 mmHg 83%
    07:00 +4°C° 0 mm 1 mps 599 mmHg 82%
    08:00 +6°C° 0 mm 1 mps 600 mmHg 74%
    09:00 +7°C° 0 mm 0 mps 601 mmHg 67%
    10:00 +9°C° 0 mm 0 mps 602 mmHg 59%
    11:00 +11°C° 0 mm 1 mps 602 mmHg 58%
    12:00 +11°C° 0 mm 1 mps 602 mmHg 57%
    13:00 +12°C° 0 mm 1 mps 602 mmHg 55%
    14:00 +11°C° 0.1 mm 1 mps 601 mmHg 60%
    15:00 +11°C° 0.1 mm 1 mps 601 mmHg 64%
    16:00 +10°C° 0.1 mm 1 mps 600 mmHg 69%
    17:00 +8°C° 0.1 mm 1 mps 599 mmHg 77%
    18:00 +6°C° 0.1 mm 1 mps 599 mmHg 85%
    19:00 +3°C° 0.1 mm 0 mps 598 mmHg 94%
    20:00 +3°C° 0 mm 1 mps 598 mmHg 94%
    21:00 +3°C° 0 mm 1 mps 598 mmHg 94%
    22:00 +3°C° 0 mm 1 mps 598 mmHg 95%
    23:00 +3°C° 0 mm 1 mps 598 mmHg 94%

    30 September, Saturday

    Time Temperature Precipitation Wind Pressure Humidity
    00:00 +2°C° 0 mm 1 mps 597 mmHg 93%
    01:00 +2°C° 0 mm 1 mps 597 mmHg 93%
    02:00 +2°C° 0 mm 1 mps 597 mmHg 92%
    03:00 +2°C° 0 mm 1 mps 597 mmHg 92%
    04:00 +2°C° 0 mm 1 mps 596 mmHg 92%
    05:00 +2°C° 0 mm 1 mps 597 mmHg 91%
    06:00 +2°C° 0 mm 1 mps 597 mmHg 90%
    07:00 +2°C° 0 mm 1 mps 597 mmHg 90%
    08:00 +5°C° 0 mm 1 mps 598 mmHg 81%
    09:00 +7°C° 0 mm 1 mps 599 mmHg 73%
    10:00 +9°C° 0 mm 1 mps 600 mmHg 65%
    11:00 +10°C° 0 mm 1 mps 600 mmHg 62%
    12:00 +10°C° 0 mm 2 mps 600 mmHg 59%
    13:00 +10°C° 0 mm 2 mps 600 mmHg 57%
    14:00 +10°C° 0.1 mm 2 mps 599 mmHg 60%
    15:00 +9°C° 0.1 mm 2 mps 599 mmHg 64%
    16:00 +9°C° 0.1 mm 2 mps 598 mmHg 68%
    17:00 +7°C° 0 mm 2 mps 598 mmHg 76%
    18:00 +6°C° 0 mm 1 mps 597 mmHg 85%
    19:00 +4°C° 0 mm 1 mps 596 mmHg 94%
    20:00 +3°C° 0 mm 1 mps 596 mmHg 95%
    21:00 +3°C° 0 mm 1 mps 596 mmHg 96%
    22:00 +3°C° 0 mm 1 mps 596 mmHg 96%
    23:00 +3°C° 0 mm 1 mps 596 mmHg 96%
    Show more